Location: Fiume Cedrino
(40.1833°N, 9.4000°E)
Time: 09:38:27
(UTC+00:00)

Daily predictions for brighter satellites

Satellite Brightness Start Highest point End
(mag) Time Altitude Azimuth Time Altitude Azimuth Time Altitude Azimuth
MetOp-A 4.2 18:54:21 10° SSE 18:59:42 83° ENE 19:05:05 10° NNW
OBJECT-B 0.8 19:03:43 10° SSE 19:06:55 66° ENE 19:10:08 10° N
Cosmos 2278 Rocket 2.3 19:04:45 10° S 19:10:13 55° ESE 19:15:45 10° NNE
COSMOS 2406 3.8 19:05:14 10° N 19:10:36 41° ENE 19:15:55 10° SE
Meteor 1-26 Rocket 4.2 19:05:30 10° S 19:11:04 67° E 19:16:31 10° NNE
ATLAS 5 CENTAUR R/B 3.0 19:06:16 10° NW 19:12:03 60° WSW 19:18:46 10° SSE
USA 290 4.2 19:09:30 10° NW 19:12:20 28° WSW 19:15:07 10° SSW
Intercosmos 25 Rocket 4.0 19:09:01 10° NNW 19:13:34 57° W 19:16:50 10° S
USA 306 3.7 19:11:22 10° NW 19:15:26 41° NE 19:19:30 10° ESE
ISS -3.6 19:14:35 10° SW 19:17:50 51° SE 19:21:07 10° ENE
SJ 16-02 1.9 19:14:12 10° SSE 19:18:15 37° ESE 19:22:20 10° NE
Meteor 1-20 Rocket 4.3 19:14:17 10° NNW 19:19:50 80° W 19:25:17 10° S
Cosmos 1666 Rocket 3.5 19:15:38 10° N 19:19:59 71° E 19:24:18 10° SSE
Sich 1 3.5 19:16:07 10° NNW 19:20:27 64° W 19:24:48 10° S
CREW DRAGON DEMO-1 DEB 3.3 19:18:51 10° NW 19:21:22 40° NNE 19:23:27 13° ESE
Cosmos 1602 3.7 19:20:11 10° N 19:24:05 79° E 19:27:58 10° S
Cosmos 1777 Rocket 4.0 19:19:57 10° SSW 19:25:09 86° ESE 19:30:23 10° NNE
Cosmos 1151 Rocket 3.0 19:21:27 10° S 19:25:49 85° E 19:30:13 10° N
Resurs 1-3 3.7 19:23:21 10° SSE 19:27:40 63° ENE 19:32:01 10° N
Cosmos 1242 Rocket 4.2 19:25:46 10° SW 19:29:03 35° WNW 19:32:19 10° N
Ariane Rocket 3.0 19:25:03 10° SSE 19:30:04 74° ENE 19:35:09 10° N
USA 186 3.4 19:29:40 10° SSW 19:31:38 22° W 19:33:32 10° NW
Cosmos 1666 4.1 19:29:49 10° NNE 19:32:47 22° ENE 19:34:38 16° ESE
Cosmos 1812 3.0 19:32:53 10° SSE 19:36:36 48° E 19:40:20 10° NNE
GPS 2-04 Rocket1 3.4 19:35:46 10° WSW 19:39:39 39° S 19:42:10 19° SE
Meteor 1-14 Rocket 4.3 19:33:56 10° N 19:39:43 67° E 19:45:03 11° SSE
ATLAS 2AS CENTAUR R/B 3.9 19:35:01 10° NNW 19:41:30 32° NE 19:47:04 12° E
Cosmos 1833 Rocket 2.7 19:36:29 10° NNW 19:42:10 74° ENE 19:46:47 16° SSE
OAO 3 Rocket 3.6 19:39:41 10° WSW 19:44:00 39° S 19:47:02 18° ESE
USA 307 3.1 19:40:03 10° NW 19:44:18 64° NE 19:47:12 19° ESE
Cosmos 1709 Rocket 4.1 19:41:33 10° N 19:47:39 78° W 19:53:45 10° S
CZ-4C R/B 3.2 19:42:31 10° NW 19:50:03 82° WSW 19:57:17 16° SSE
Cosmos 1782 4.2 19:50:35 10° SSW 19:54:20 40° WNW 19:58:05 10° N
USA 308 2.9 19:53:52 10° NW 19:58:11 81° NE 20:00:33 26° SE
Cosmos 2074 Rocket 4.4 19:52:18 10° N 19:58:23 48° ENE 20:02:25 21° SE
Cosmos 2184 Rocket 4.3 19:53:37 10° N 19:59:35 47° ENE 20:03:21 22° SE
CZ-2C R/B 2.8 19:57:32 10° SSW 19:59:26 17° S 19:59:26 17° S
X-37B 3.1 19:59:46 10° WSW 20:01:14 13° SW 20:02:22 11° SSW
CRYOSAT 2 4.3 19:58:13 16° SSE 20:02:08 76° E 20:07:02 10° N
Cosmos 1500 3.4 19:59:54 10° NNW 20:03:37 65° W 20:06:21 17° S
Meteor 1-5 Rocket 4.0 20:03:47 10° N 20:09:08 85° E 20:12:48 21° S
Delta 2 Rocket 4.0 20:05:47 10° W 20:10:51 49° S 20:12:53 30° SE
Terra 3.5 20:12:16 17° E 20:13:44 19° ENE 20:17:02 10° NNE
MetOp-B 4.1 20:11:27 23° SSE 20:14:48 77° ENE 20:20:10 10° N
Cosmos 2297 4.0 20:11:04 18° S 20:15:02 45° ESE 20:20:25 10° NE
Cosmos 1461 3.8 20:14:10 31° SE 20:15:09 34° ESE 20:19:22 10° NE
Cosmos 1900 4.3 20:12:54 10° SSW 20:17:57 65° ESE 20:22:59 10° NE
Cosmos 1515 Rocket 4.1 20:14:02 10° SSW 20:18:21 57° W 20:22:41 10° N
USA 267 4.5 20:14:57 13° S 20:19:54 31° SW 20:25:37 10° WNW
Meteor 1-11 Rocket 4.0 20:14:48 10° N 20:20:39 57° ENE 20:23:30 30° SE
Cosmos 2228 Rocket 3.1 20:19:05 31° SSE 20:21:03 60° E 20:25:28 10° NNE
Tianhe-1 1.0 20:21:15 10° W 20:24:24 81° N 20:25:05 51° ENE
Cosmos 1340 Rocket 4.1 20:21:01 10° NNE 20:24:25 25° ENE 20:24:45 25° E
Resurs 01 Rocket 2.2 20:21:33 19° S 20:24:32 53° W 20:28:53 10° NNW
Cosmos 1869 Rocket 3.9 20:23:52 10° N 20:28:04 47° E 20:29:01 40° ESE
SPOT 1/Viking Rocket 3.5 20:27:48 31° SSE 20:30:24 85° ENE 20:35:36 10° NNW
BREEZE M DEB (TANK) 3.2 20:27:37 10° NW 20:30:36 24° NNE 20:31:13 21° NE
ERS-1 Rocket 3.6 20:29:27 32° ESE 20:31:00 41° ENE 20:35:42 10° N
Cosmos 2082 Rocket 2.1 20:27:24 10° NNW 20:33:03 85° WSW 20:35:40 33° SSE
USA 305 3.5 20:31:38 10° WNW 20:35:41 44° SW 20:36:40 37° S
Spot 2 Rocket 3.4 20:35:19 38° SSE 20:37:13 72° ENE 20:42:15 10° N
Cosmos 1943 Rocket 2.3 20:35:06 33° SSE 20:37:18 51° ESE 20:42:44 10° NNE
Cosmos 1937 Rocket 3.6 20:36:59 39° SSE 20:38:23 51° ESE 20:43:25 10° NNE
Cosmos 1707 Rocket 4.0 20:41:46 41° E 20:41:50 41° E 20:45:59 10° NNE
Meteor 2-12 Rocket 4.3 20:36:51 10° N 20:42:56 80° E 20:45:37 35° SSE
CARTOSAT-1 3.5 20:42:26 53° SE 20:43:20 71° ENE 20:47:38 10° N
SPOT 5 3.3 20:42:26 40° ESE 20:43:57 54° ENE 20:49:08 10° N
ERBS 4.2 20:41:55 10° NNW 20:44:31 21° NE 20:44:57 20° NE
DNEPR-1 R/B 4.1 20:39:34 10° SSW 20:45:55 86° ESE 20:51:06 10° NNE
Cosmos 1271 Rocket 4.2 20:44:37 13° SW 20:47:52 36° WNW 20:51:36 10° N
Cosmos 1536 2.7 20:44:24 10° N 20:48:25 72° E 20:48:43 68° ESE
SL-24 DEB 4.3 20:52:58 52° ESE 20:53:28 55° E 20:57:58 10° N
ISS -1.3 20:51:59 10° W 20:54:49 24° NNW 20:57:38 10° NNE
USA 306 4.1 20:51:32 10° WNW 20:55:17 30° SW 20:55:36 30° SW
Cosmos 2341 Rocket 4.5 20:49:56 10° N 20:56:03 46° ENE 20:57:43 38° ESE
Cosmos 1680 Rocket 3.4 20:50:46 10° NNW 20:56:07 86° ENE 20:57:31 51° SSE
Cosmos 858 Rocket 4.4 20:54:38 45° S 20:56:12 73° ESE 21:01:26 10° NNE
SJ 16-02 4.0 20:53:41 10° WSW 20:56:56 20° WNW 21:00:13 10° NNW
Cosmos 1238 Rocket 4.3 20:53:31 10° N 20:58:36 34° ENE 20:59:04 34° E
Cosmos 2369 Rocket 2.7 20:58:46 40° ESE 20:58:46 40° ESE 21:03:53 10° NE
Cosmos 2084 Rocket 3.7 20:56:11 10° NNW 21:00:26 56° NE 21:00:52 53° ENE
Cosmos 1544 3.3 20:58:07 10° N 21:01:17 62° NNE 21:01:17 62° NNE
ARIANE 5 R/B 3.0 21:10:14 46° SW 21:10:55 52° W 21:15:10 10° NNW
Cosmos 1733 Rocket 3.6 21:08:40 10° N 21:12:25 44° ENE 21:12:25 44° ENE
SL-8 Rocket 4.3 21:09:32 10° N 21:15:41 50° ENE 21:16:50 45° ESE
RESURS DK-1 4.4 21:14:46 10° N 21:17:38 18° NE 21:17:43 18° NE
Cosmos 372 Rocket 3.8 21:20:07 69° ESE 21:20:09 69° ESE 21:25:14 10° NNE
BREEZE-M DEB (TANK) 4.1 21:18:11 10° NW 21:18:58 19° NNW 21:18:58 19° NNW
ATLAS 2AS CENTAUR R/B 2.9 21:25:50 10° NW 21:32:54 60° WSW 21:34:29 48° SSW
SL-24 R/B - RUBIN 2 4.2 21:29:00 10° NW 21:34:02 52° WSW 21:34:02 52° WSW
Cosmos 44 3.8 21:30:32 10° NW 21:35:43 50° WSW 21:35:57 50° SW
Cosmos 2263 4.3 21:36:43 60° E 21:36:43 60° E 21:42:11 10° NNE
Cosmos 1818 3.4 21:33:00 10° NW 21:38:30 78° WSW 21:38:46 75° SSW
Cosmos 1743 3.8 21:36:04 10° NNW 21:39:06 42° WNW 21:39:06 42° WNW
Cosmos 864 Rocket 4.5 21:34:42 10° N 21:40:47 61° E 21:41:23 59° ESE
Cosmos 1959 Rocket 4.4 21:37:13 10° N 21:43:23 67° E 21:43:59 63° ESE
Meteor 1-19 Rocket 3.9 21:43:17 79° SSW 21:43:37 87° W 21:49:03 10° N
Meteor 2-4 Rocket 3.8 21:50:59 61° E 21:50:59 61° E 21:56:15 10° NNE
Terra 2.5 21:51:09 46° W 21:51:09 46° W 21:55:42 10° NNW
Cosmos 2150 Rocket 4.5 21:56:17 50° ENE 21:56:17 50° ENE 22:00:31 10° NNE
Cosmos 1862 Rocket 4.3 21:57:49 48° NW 21:57:49 48° NW 22:01:30 10° N
Gbstr 26 Del rocket 3.8 21:50:19 10° NW 21:57:42 86° SW 21:58:21 74° SE
Cosmos 1125 Rocket 4.2 22:04:18 43° ENE 22:04:18 43° ENE 22:08:05 10° NNE
ATLAS CENTAUR R/B 3.3 22:10:15 22° NNE 22:10:15 22° NNE 22:11:47 10° NNE
Cosmos 1607 4.1 22:06:38 47° SW 22:08:34 71° WNW 22:15:05 10° NNE
Cosmos 1821 Rocket 4.3 22:11:07 10° N 22:17:23 55° E 22:17:36 55° E
Cosmos 2366 rocket 4.1 22:12:22 10° NNW 22:18:30 65° W 22:18:59 63° WSW
Cosmos 1943 Rocket 4.2 22:16:53 10° WSW 22:21:20 24° NW 22:25:47 10° N
Spot 4 4.4 22:30:35 58° N 22:30:35 58° N 22:34:29 10° NNW
Cosmos 1656 Rocket 4.0 22:30:07 55° WNW 22:30:22 56° WNW 22:35:50 10° NNE
Milstar 3 4.4 22:21:09 10° W 22:29:20 31° SW 22:29:20 31° SW
ISS -0.3 22:31:07 10° NNW 22:32:33 12° N 22:33:58 10° NNE
Cosmos 2369 Rocket 3.8 22:40:30 22° W 22:42:46 29° WNW 22:47:40 10° N
Cosmos 724 4.3 22:44:33 81° NW 22:44:33 81° NW 22:50:48 10° NNE
ALOS 2 3.8 22:47:43 40° N 22:47:43 40° N 22:50:35 10° N
Cosmos 2344 4.5 22:40:48 10° NNW 22:50:25 74° NE 22:56:38 36° SE
BREEZE-M DEB (TANK) 3.9 22:40:33 10° WNW 22:52:44 77° NNE 22:52:48 77° NE
Lacrosse 5 2.7 22:54:17 46° NNE 22:54:17 46° NNE 22:57:55 10° NE
Nadezhda 3 Rocket 4.1 22:59:44 67° W 22:59:46 67° W 23:05:57 10° N
Nimbus 7 Rocket 4.4 22:55:44 10° NNE 23:01:10 73° NE 23:01:10 73° NE
Thor Agena Rocket 4.0 23:11:22 10° NNE 23:15:40 60° NNE 23:15:40 60° NNE
COSMOS 2455 3.9 23:14:46 10° NNW 23:20:23 38° NE 23:21:46 34° E
Cosmos 1605 Rocket 4.2 23:17:21 10° N 23:23:38 63° E 23:23:40 63° E
Okean 2 Rocket 4.5 23:25:31 10° N 23:28:09 36° N 23:28:09 36° N
Meteor 1-15 Rocket 4.5 23:25:01 10° NNW 23:30:02 64° NW 23:30:02 64° NW
EO 1 Delta rocket 4.4 23:34:38 68° NE 23:34:38 68° NE 23:40:29 10° N
Cosmos 2227 Rocket 4.0 23:30:56 10° N 23:35:36 26° NE 23:37:44 20° E
Cosmos 2297 Rocket 3.4 23:32:47 10° N 23:37:56 34° ENE 23:39:09 31° E
Cosmos 1656 4.5 23:40:31 40° ENE 23:40:31 40° ENE 23:44:38 10° NE
Cosmos 371 Rocket 4.4 23:56:11 38° ENE 23:56:11 38° ENE 23:59:36 10° NNE
